RYR2ZX EGSS-LERS

Flight info

Callsign RYR2ZX
Flight time 1h 51m
Altitude 33000
Route NUGBO M183 SILVA Q41 COWLY UT71 VAPID UN859 SOPIL DCT BALAN DCT EVPOK DCT NARAK DCT GAI DCT LOMRA DCT ROCAN DCT PUMAL/N0361F230 N31 BERGA
Aircraft B38M/M-SDE1FGHILORVWXY/HB1

Departure

Time 2026-04-26 01:17
Airport London Stansted Airport (EGSS)

Arrival

Time 2026-04-26 03:08
Airport Reus Airport (LERS)
Time Latitude Longitude Altitude Speed Heading
2026-04-26 00:30 51.89125 0.25561 361 ft 0 kts 42°
2026-04-26 01:05 51.89116 0.25548 361 ft 4 kts 42°
2026-04-26 01:05 51.89100 0.25524 358 ft 4 kts 40°
2026-04-26 01:05 51.89079 0.25509 355 ft 4 kts 345°
2026-04-26 01:05 51.89061 0.25531 353 ft 4 kts 313°
2026-04-26 01:06 51.89050 0.25549 359 ft 0 kts 313°
2026-04-26 01:10 51.89052 0.25547 351 ft 2 kts 313°
2026-04-26 01:10 51.89082 0.25494 351 ft 11 kts 313°
2026-04-26 01:10 51.89144 0.25386 353 ft 14 kts 313°
2026-04-26 01:10 51.89202 0.25242 355 ft 16 kts 304°
2026-04-26 01:11 51.89229 0.25083 357 ft 17 kts 238°
2026-04-26 01:11 51.89147 0.24935 358 ft 19 kts 222°
2026-04-26 01:11 51.89046 0.24783 354 ft 21 kts 223°
2026-04-26 01:11 51.88935 0.24618 355 ft 23 kts 222°
2026-04-26 01:12 51.88815 0.24438 353 ft 24 kts 223°
2026-04-26 01:12 51.88686 0.24244 354 ft 26 kts 223°
2026-04-26 01:12 51.88548 0.24038 358 ft 28 kts 223°
2026-04-26 01:12 51.88404 0.23820 351 ft 25 kts 223°
2026-04-26 01:13 51.88318 0.23690 358 ft 17 kts 223°
2026-04-26 01:13 51.88226 0.23552 360 ft 19 kts 223°
2026-04-26 01:13 51.88124 0.23401 354 ft 21 kts 223°
2026-04-26 01:13 51.88012 0.23234 351 ft 23 kts 223°
2026-04-26 01:14 51.87891 0.23052 351 ft 25 kts 222°
2026-04-26 01:14 51.87761 0.22857 357 ft 26 kts 223°
2026-04-26 01:14 51.87624 0.22650 351 ft 27 kts 223°
2026-04-26 01:14 51.87499 0.22463 345 ft 23 kts 223°
2026-04-26 01:15 51.87414 0.22335 342 ft 14 kts 229°
2026-04-26 01:15 51.87413 0.22181 336 ft 16 kts 306°
2026-04-26 01:15 51.87492 0.22044 337 ft 12 kts 313°
2026-04-26 01:15 51.87554 0.22061 338 ft 9 kts 44°
2026-04-26 01:16 51.87556 0.22065 338 ft 0 kts 43°
2026-04-26 01:16 51.87630 0.22176 341 ft 49 kts 43°
2026-04-26 01:16 51.88074 0.22840 342 ft 123 kts 43°
2026-04-26 01:16 51.88839 0.24005 450 ft 170 kts 44°
2026-04-26 01:17 51.89673 0.25291 1420 ft 162 kts 45°
2026-04-26 01:17 51.90536 0.26603 2046 ft 181 kts 44°
2026-04-26 01:17 51.91496 0.28045 2726 ft 195 kts 43°
2026-04-26 01:17 51.92671 0.29315 3379 ft 213 kts 17°
2026-04-26 01:18 51.94148 0.29580 4197 ft 219 kts 352°
2026-04-26 01:18 51.95601 0.28646 4706 ft 236 kts 323°
2026-04-26 01:18 51.96659 0.26506 5183 ft 255 kts 292°
2026-04-26 01:18 51.97053 0.23624 5740 ft 269 kts 281°
2026-04-26 01:19 51.97386 0.20637 6694 ft 266 kts 281°
2026-04-26 01:19 51.97718 0.17658 7700 ft 272 kts 280°
2026-04-26 01:19 51.98056 0.14598 8657 ft 277 kts 280°
2026-04-26 01:19 51.98394 0.11516 9677 ft 280 kts 280°
2026-04-26 01:20 51.98738 0.08378 10621 ft 284 kts 280°
2026-04-26 01:20 51.98826 0.05114 11221 ft 300 kts 261°
2026-04-26 01:20 51.98389 0.01703 11745 ft 316 kts 258°
2026-04-26 01:20 51.97938 -0.01846 12421 ft 325 kts 258°
2026-04-26 01:21 51.97476 -0.05449 13313 ft 328 kts 258°
2026-04-26 01:21 51.97004 -0.09099 14095 ft 333 kts 258°
2026-04-26 01:21 51.96525 -0.12799 14823 ft 337 kts 258°
2026-04-26 01:21 51.96039 -0.16534 15579 ft 340 kts 259°
2026-04-26 01:22 51.95547 -0.20305 16315 ft 343 kts 259°
2026-04-26 01:22 51.95050 -0.24098 17050 ft 346 kts 259°
2026-04-26 01:22 51.94548 -0.27923 17750 ft 349 kts 259°
2026-04-26 01:22 51.94039 -0.31794 18448 ft 352 kts 259°
2026-04-26 01:23 51.93525 -0.35687 19046 ft 355 kts 259°
2026-04-26 01:23 51.93006 -0.39608 19637 ft 357 kts 259°
2026-04-26 01:23 51.92483 -0.43546 20218 ft 359 kts 259°
2026-04-26 01:23 51.91955 -0.47518 20791 ft 362 kts 259°
2026-04-26 01:24 51.91421 -0.51519 21362 ft 364 kts 259°
2026-04-26 01:24 51.90882 -0.55547 21939 ft 367 kts 259°
2026-04-26 01:24 51.90338 -0.59596 22500 ft 369 kts 259°
2026-04-26 01:24 51.89790 -0.63672 23061 ft 372 kts 259°
2026-04-26 01:25 51.89236 -0.67776 23626 ft 375 kts 259°
2026-04-26 01:25 51.88676 -0.71914 24126 ft 378 kts 259°
2026-04-26 01:25 51.88112 -0.76071 24579 ft 380 kts 258°
2026-04-26 01:25 51.87549 -0.80210 25067 ft 382 kts 258°
2026-04-26 01:26 51.86975 -0.84418 25528 ft 384 kts 258°
2026-04-26 01:26 51.86389 -0.88704 26003 ft 386 kts 258°
2026-04-26 01:26 51.85704 -0.92855 26425 ft 390 kts 249°
2026-04-26 01:26 51.84319 -0.96633 26905 ft 394 kts 231°
2026-04-26 01:27 51.82253 -0.99584 27337 ft 402 kts 214°
2026-04-26 01:27 51.79694 -1.01468 27772 ft 409 kts 199°
2026-04-26 01:27 51.76891 -1.02400 28201 ft 413 kts 193°
2026-04-26 01:27 51.74011 -1.03229 28584 ft 417 kts 193°
2026-04-26 01:28 51.71182 -1.04003 28998 ft 419 kts 193°
2026-04-26 01:28 51.68299 -1.04766 29377 ft 421 kts 192°
2026-04-26 01:28 51.65398 -1.05517 29768 ft 424 kts 192°
2026-04-26 01:28 51.62474 -1.06262 30152 ft 426 kts 191°
2026-04-26 01:29 51.59486 -1.06398 30490 ft 433 kts 180°
2026-04-26 01:29 51.56476 -1.06192 30806 ft 435 kts 181°
2026-04-26 01:29 51.53442 -1.06038 31096 ft 438 kts 181°
2026-04-26 01:29 51.50391 -1.05874 31450 ft 438 kts 181°
2026-04-26 01:30 51.47349 -1.05708 31863 ft 438 kts 181°
2026-04-26 01:30 51.44305 -1.05542 32263 ft 437 kts 181°
2026-04-26 01:30 51.41270 -1.05376 32671 ft 436 kts 181°
2026-04-26 01:30 51.38237 -1.05211 33064 ft 436 kts 181°
2026-04-26 01:31 51.35196 -1.05045 33282 ft 438 kts 181°
2026-04-26 01:31 51.32161 -1.04879 33279 ft 435 kts 181°
2026-04-26 01:31 51.26120 -1.04342 33251 ft 438 kts 171°
2026-04-26 01:32 51.23230 -1.02781 33270 ft 442 kts 158°
2026-04-26 01:32 51.20415 -1.00786 33253 ft 444 kts 159°
2026-04-26 01:32 51.14767 -0.96763 33265 ft 445 kts 158°
2026-04-26 01:33 51.09131 -0.92684 33260 ft 445 kts 158°
2026-04-26 01:33 51.03499 -0.88610 33267 ft 445 kts 158°
2026-04-26 01:34 50.97861 -0.84540 33261 ft 445 kts 158°
2026-04-26 01:34 50.92216 -0.80477 33256 ft 446 kts 158°
2026-04-26 01:35 50.86567 -0.76421 33257 ft 446 kts 158°
2026-04-26 01:35 50.81251 -0.71303 33256 ft 449 kts 149°
2026-04-26 01:36 50.75998 -0.65968 33252 ft 449 kts 149°
2026-04-26 01:37 50.68113 -0.57970 33258 ft 449 kts 149°
2026-04-26 01:37 50.62854 -0.52653 33250 ft 449 kts 149°
2026-04-26 01:38 50.57583 -0.47338 33255 ft 450 kts 149°
2026-04-26 01:38 50.52305 -0.42031 33255 ft 450 kts 149°
2026-04-26 01:39 50.47034 -0.36744 33251 ft 450 kts 149°
2026-04-26 01:39 50.41791 -0.31501 33252 ft 450 kts 149°
2026-04-26 01:40 50.36515 -0.26238 33252 ft 450 kts 149°
2026-04-26 01:40 50.31232 -0.20982 33249 ft 450 kts 149°
2026-04-26 01:41 50.25942 -0.15733 33248 ft 450 kts 149°
2026-04-26 01:41 50.20654 -0.10500 33247 ft 450 kts 149°
2026-04-26 01:42 50.15364 -0.05278 33249 ft 450 kts 149°
2026-04-26 01:42 50.10004 -0.00268 33227 ft 447 kts 160°
2026-04-26 01:43 50.04047 0.02282 33243 ft 446 kts 167°
2026-04-26 01:43 49.98041 0.04710 33242 ft 446 kts 168°
2026-04-26 01:44 49.92030 0.07080 33239 ft 446 kts 168°
2026-04-26 01:44 49.86011 0.09440 33237 ft 446 kts 168°
2026-04-26 01:45 49.81007 0.11396 33238 ft 446 kts 168°
2026-04-26 01:45 49.74988 0.13745 33237 ft 446 kts 168°
2026-04-26 01:46 49.68969 0.16092 33239 ft 446 kts 167°
2026-04-26 01:46 49.62956 0.18523 33236 ft 447 kts 167°
2026-04-26 01:47 49.56941 0.20942 33238 ft 447 kts 167°
2026-04-26 01:47 49.50925 0.23354 33236 ft 447 kts 167°
2026-04-26 01:48 49.44906 0.25762 33236 ft 447 kts 167°
2026-04-26 01:48 49.38882 0.28166 33248 ft 447 kts 167°
2026-04-26 01:49 49.32862 0.30562 33237 ft 447 kts 167°
2026-04-26 01:49 49.26860 0.33084 33238 ft 448 kts 166°
2026-04-26 01:50 49.20853 0.35615 33234 ft 448 kts 166°
2026-04-26 01:50 49.14848 0.38136 33237 ft 448 kts 166°
2026-04-26 01:51 49.08838 0.40652 33228 ft 448 kts 166°
2026-04-26 01:51 49.02832 0.43160 33226 ft 448 kts 166°
2026-04-26 01:52 48.96825 0.45663 33230 ft 448 kts 166°
2026-04-26 01:52 48.90814 0.48161 33224 ft 448 kts 166°
2026-04-26 01:53 48.84800 0.50654 33225 ft 448 kts 166°
2026-04-26 01:53 48.78781 0.53121 33221 ft 448 kts 167°
2026-04-26 01:54 48.72750 0.55486 33227 ft 448 kts 167°
2026-04-26 01:54 48.66720 0.57855 33221 ft 448 kts 167°
2026-04-26 01:55 48.60683 0.60223 33221 ft 448 kts 167°
2026-04-26 01:55 48.54638 0.62587 33216 ft 449 kts 167°
2026-04-26 01:56 48.48607 0.65022 33209 ft 449 kts 166°
2026-04-26 01:56 48.42577 0.67470 33209 ft 449 kts 166°
2026-04-26 01:57 48.36540 0.69913 33207 ft 449 kts 166°
2026-04-26 01:57 48.30503 0.72350 33204 ft 449 kts 166°
2026-04-26 01:58 48.24464 0.74767 33204 ft 449 kts 166°
2026-04-26 01:58 48.18417 0.77149 33202 ft 449 kts 166°
2026-04-26 01:59 48.12368 0.79529 33204 ft 450 kts 166°
2026-04-26 01:59 48.06309 0.81908 33195 ft 450 kts 166°
2026-04-26 02:00 48.00253 0.84279 33184 ft 450 kts 166°
2026-04-26 02:00 47.94196 0.86645 33192 ft 450 kts 166°
2026-04-26 02:01 47.88134 0.89007 33196 ft 450 kts 166°
2026-04-26 02:01 47.82069 0.91364 33186 ft 450 kts 166°
2026-04-26 02:02 47.76041 0.93700 33185 ft 451 kts 166°
2026-04-26 02:02 47.69974 0.96045 33181 ft 451 kts 166°
2026-04-26 02:03 47.63900 0.98386 33183 ft 451 kts 165°
2026-04-26 02:03 47.57837 1.00719 33184 ft 450 kts 165°
2026-04-26 02:04 47.51771 1.03047 33183 ft 450 kts 165°
2026-04-26 02:04 47.45702 1.05371 33183 ft 450 kts 165°
2026-04-26 02:04 47.42647 1.06323 33168 ft 449 kts 176°
2026-04-26 02:05 47.39532 1.06295 33193 ft 448 kts 182°
2026-04-26 02:05 47.33282 1.06206 33180 ft 449 kts 181°
2026-04-26 02:06 47.27034 1.06070 33178 ft 449 kts 181°
2026-04-26 02:06 47.20795 1.05925 33178 ft 449 kts 181°
2026-04-26 02:07 47.14552 1.05779 33178 ft 448 kts 181°
2026-04-26 02:07 47.08317 1.05634 33177 ft 448 kts 181°
2026-04-26 02:08 47.02083 1.05462 33175 ft 448 kts 182°
2026-04-26 02:08 46.95851 1.05186 33175 ft 448 kts 182°
2026-04-26 02:09 46.89623 1.04923 33175 ft 448 kts 182°
2026-04-26 02:09 46.83395 1.04661 33178 ft 448 kts 182°
2026-04-26 02:10 46.77166 1.04400 33177 ft 448 kts 182°
2026-04-26 02:10 46.70940 1.04140 33174 ft 448 kts 182°
2026-04-26 02:11 46.64718 1.03880 33175 ft 447 kts 182°
2026-04-26 02:11 46.58536 1.03622 33179 ft 447 kts 182°
2026-04-26 02:12 46.52318 1.03413 33177 ft 447 kts 177°
2026-04-26 02:12 46.49230 1.04184 33187 ft 445 kts 165°
2026-04-26 02:12 46.46201 1.05197 33173 ft 447 kts 167°
2026-04-26 02:13 46.40143 1.07178 33178 ft 446 kts 167°
2026-04-26 02:13 46.34097 1.09191 33180 ft 446 kts 167°
2026-04-26 02:14 46.28055 1.11203 33179 ft 445 kts 167°
2026-04-26 02:14 46.22016 1.13208 33181 ft 445 kts 167°
2026-04-26 02:15 46.15992 1.15205 33181 ft 444 kts 167°
2026-04-26 02:15 46.10697 1.16957 33181 ft 443 kts 167°
2026-04-26 02:16 46.04688 1.18941 33180 ft 443 kts 167°
2026-04-26 02:16 45.98725 1.20904 33182 ft 442 kts 167°
2026-04-26 02:17 45.92737 1.22872 33182 ft 441 kts 168°
2026-04-26 02:17 45.86760 1.24831 33183 ft 440 kts 168°
2026-04-26 02:18 45.80793 1.26784 33184 ft 439 kts 168°
2026-04-26 02:18 45.74838 1.28727 33180 ft 439 kts 168°
2026-04-26 02:19 45.68893 1.30664 33179 ft 438 kts 168°
2026-04-26 02:19 45.62944 1.32598 33177 ft 438 kts 168°
2026-04-26 02:20 45.57010 1.34522 33174 ft 437 kts 169°
2026-04-26 02:20 45.51078 1.36442 33177 ft 437 kts 169°
2026-04-26 02:21 45.45157 1.38354 33173 ft 436 kts 169°
2026-04-26 02:21 45.39239 1.40261 33180 ft 436 kts 169°
2026-04-26 02:22 45.33333 1.42160 33182 ft 435 kts 169°
2026-04-26 02:22 45.27424 1.44055 33180 ft 435 kts 169°
2026-04-26 02:23 45.21522 1.45945 33179 ft 435 kts 169°
2026-04-26 02:23 45.15626 1.47829 33186 ft 434 kts 169°
2026-04-26 02:24 45.09737 1.49706 33182 ft 433 kts 169°
2026-04-26 02:24 45.03857 1.51577 33185 ft 433 kts 169°
2026-04-26 02:25 44.97985 1.53441 33179 ft 432 kts 169°
2026-04-26 02:25 44.92115 1.55301 33183 ft 432 kts 169°
2026-04-26 02:26 44.86255 1.57153 33179 ft 432 kts 169°
2026-04-26 02:26 44.80400 1.59000 33180 ft 431 kts 169°
2026-04-26 02:27 44.74542 1.60844 33180 ft 431 kts 169°
2026-04-26 02:27 44.68694 1.62681 33178 ft 430 kts 170°
2026-04-26 02:28 44.63838 1.64204 33180 ft 430 kts 170°
2026-04-26 02:28 44.57050 1.66328 33182 ft 430 kts 170°
2026-04-26 02:29 44.51211 1.68151 33181 ft 430 kts 170°
2026-04-26 02:29 44.46317 1.69676 33184 ft 430 kts 171°
2026-04-26 02:30 44.40477 1.71493 33182 ft 430 kts 171°
2026-04-26 02:30 44.34639 1.73305 33183 ft 429 kts 171°
2026-04-26 02:31 44.28794 1.74999 33180 ft 427 kts 175°
2026-04-26 02:31 44.22912 1.76265 33185 ft 428 kts 174°
2026-04-26 02:32 44.17038 1.77579 33189 ft 428 kts 174°
2026-04-26 02:32 44.11166 1.78897 33184 ft 427 kts 174°
2026-04-26 02:33 44.05292 1.80213 33185 ft 427 kts 174°
2026-04-26 02:33 43.99457 1.81519 33184 ft 427 kts 174°
2026-04-26 02:34 43.93582 1.82516 33188 ft 424 kts 180°
2026-04-26 02:34 43.87682 1.83028 33184 ft 425 kts 180°
2026-04-26 02:35 43.81786 1.83608 33186 ft 425 kts 179°
2026-04-26 02:35 43.75890 1.84196 33185 ft 425 kts 179°
2026-04-26 02:36 43.69994 1.84784 33184 ft 425 kts 179°
2026-04-26 02:36 43.64101 1.85372 33184 ft 424 kts 179°
2026-04-26 02:37 43.58214 1.85957 33191 ft 424 kts 179°
2026-04-26 02:37 43.52323 1.86541 33188 ft 424 kts 179°
2026-04-26 02:38 43.46434 1.87124 33188 ft 424 kts 179°
2026-04-26 02:38 43.40549 1.87705 33182 ft 424 kts 179°
2026-04-26 02:39 43.34660 1.88284 33183 ft 424 kts 179°
2026-04-26 02:39 43.28767 1.88847 33176 ft 424 kts 179°
2026-04-26 02:40 43.22874 1.89410 33174 ft 425 kts 179°
2026-04-26 02:40 43.17020 1.89969 33149 ft 421 kts 179°
2026-04-26 02:40 43.14138 1.90244 32954 ft 410 kts 179°
2026-04-26 02:41 43.11319 1.90512 32696 ft 402 kts 179°
2026-04-26 02:41 43.08554 1.90775 32440 ft 397 kts 179°
2026-04-26 02:41 43.05808 1.91036 32184 ft 395 kts 179°
2026-04-26 02:41 43.03072 1.91296 31927 ft 393 kts 179°
2026-04-26 02:42 43.00348 1.91554 31670 ft 392 kts 179°
2026-04-26 02:42 42.97634 1.91811 31413 ft 390 kts 179°
2026-04-26 02:42 42.94935 1.92067 31169 ft 388 kts 179°
2026-04-26 02:42 42.92248 1.92321 30920 ft 387 kts 179°
2026-04-26 02:43 42.86900 1.92826 30438 ft 384 kts 178°
2026-04-26 02:43 42.84246 1.93077 30156 ft 380 kts 179°
2026-04-26 02:43 42.81607 1.93325 29583 ft 380 kts 178°
2026-04-26 02:44 42.78975 1.93573 29127 ft 378 kts 178°
2026-04-26 02:44 42.76348 1.93588 28392 ft 379 kts 189°
2026-04-26 02:44 42.73760 1.92939 27586 ft 377 kts 191°
2026-04-26 02:44 42.71174 1.92397 26897 ft 375 kts 191°
2026-04-26 02:45 42.68603 1.91844 26482 ft 373 kts 190°
2026-04-26 02:45 42.66053 1.91297 26098 ft 369 kts 190°
2026-04-26 02:45 42.63527 1.90760 25736 ft 366 kts 190°
2026-04-26 02:45 42.61023 1.90228 25354 ft 364 kts 190°
2026-04-26 02:46 42.58532 1.89698 24970 ft 362 kts 190°
2026-04-26 02:46 42.56052 1.89171 24590 ft 360 kts 190°
2026-04-26 02:46 42.53587 1.88648 24218 ft 358 kts 190°
2026-04-26 02:46 42.51127 1.88126 23845 ft 357 kts 190°
2026-04-26 02:47 42.48679 1.87608 23412 ft 355 kts 190°
2026-04-26 02:47 42.46246 1.87093 23004 ft 353 kts 190°
2026-04-26 02:47 42.43827 1.86581 22634 ft 350 kts 190°
2026-04-26 02:47 42.41431 1.86074 22273 ft 347 kts 190°
2026-04-26 02:48 42.39058 1.85573 21914 ft 344 kts 190°
2026-04-26 02:48 42.36705 1.85076 21554 ft 341 kts 190°
2026-04-26 02:48 42.34370 1.84584 21199 ft 338 kts 190°
2026-04-26 02:48 42.32051 1.84095 20852 ft 336 kts 190°
2026-04-26 02:49 42.29752 1.83611 20505 ft 334 kts 190°
2026-04-26 02:49 42.27465 1.83130 20155 ft 331 kts 190°
2026-04-26 02:49 42.25195 1.82653 19816 ft 329 kts 190°
2026-04-26 02:49 42.22969 1.82184 19480 ft 327 kts 190°
2026-04-26 02:50 42.20733 1.81715 19142 ft 325 kts 190°
2026-04-26 02:50 42.18467 1.81239 18804 ft 324 kts 190°
2026-04-26 02:50 42.16279 1.80781 18469 ft 322 kts 190°
2026-04-26 02:50 42.14068 1.80318 18093 ft 320 kts 190°
2026-04-26 02:51 42.11874 1.79859 17737 ft 318 kts 190°
2026-04-26 02:51 42.09701 1.79404 17398 ft 315 kts 190°
2026-04-26 02:51 42.07545 1.78953 17080 ft 312 kts 189°
2026-04-26 02:51 42.05409 1.78507 16740 ft 309 kts 189°
2026-04-26 02:52 42.03290 1.78064 16423 ft 307 kts 189°
2026-04-26 02:52 42.01187 1.77625 16095 ft 304 kts 189°
2026-04-26 02:52 41.99101 1.77191 15785 ft 302 kts 189°
2026-04-26 02:52 41.97034 1.76725 15444 ft 301 kts 195°
2026-04-26 02:53 41.95165 1.75539 15100 ft 297 kts 216°
2026-04-26 02:53 41.93467 1.73973 14800 ft 295 kts 215°
2026-04-26 02:53 41.91784 1.72414 14508 ft 293 kts 216°
2026-04-26 02:53 41.90117 1.70852 14203 ft 292 kts 216°
2026-04-26 02:54 41.88462 1.69288 13889 ft 290 kts 216°
2026-04-26 02:54 41.86813 1.67725 13554 ft 289 kts 216°
2026-04-26 02:54 41.85178 1.66170 13224 ft 287 kts 216°
2026-04-26 02:54 41.83556 1.64628 12917 ft 285 kts 216°
2026-04-26 02:55 41.81946 1.63097 12610 ft 283 kts 216°
2026-04-26 02:55 41.80352 1.61582 12318 ft 280 kts 216°
2026-04-26 02:55 41.78749 1.60057 12017 ft 285 kts 216°
2026-04-26 02:55 41.77120 1.58510 11708 ft 289 kts 216°
2026-04-26 02:56 41.75473 1.56947 11398 ft 290 kts 216°
2026-04-26 02:56 41.73802 1.55419 11102 ft 291 kts 209°
2026-04-26 02:56 41.71885 1.54608 10822 ft 289 kts 191°
2026-04-26 02:56 41.69924 1.54097 10588 ft 286 kts 192°
2026-04-26 02:57 41.67968 1.53582 10361 ft 287 kts 192°
2026-04-26 02:57 41.66010 1.53075 10118 ft 287 kts 192°
2026-04-26 02:57 41.64049 1.52572 9851 ft 287 kts 191°
2026-04-26 02:57 41.62088 1.52070 9570 ft 286 kts 191°
2026-04-26 02:58 41.60137 1.51573 9320 ft 286 kts 191°
2026-04-26 02:58 41.58208 1.51082 9023 ft 286 kts 191°
2026-04-26 02:58 41.56262 1.50587 8732 ft 283 kts 191°
2026-04-26 02:58 41.54324 1.50309 8446 ft 280 kts 175°
2026-04-26 02:59 41.52410 1.50714 8200 ft 278 kts 171°
2026-04-26 02:59 41.50499 1.51137 7960 ft 279 kts 171°
2026-04-26 02:59 41.48587 1.51562 7719 ft 279 kts 171°
2026-04-26 02:59 41.46674 1.51989 7478 ft 279 kts 170°
2026-04-26 03:00 41.44760 1.52418 7242 ft 278 kts 170°
2026-04-26 03:00 41.42855 1.52846 6992 ft 277 kts 170°
2026-04-26 03:00 41.40964 1.53269 6744 ft 274 kts 170°
2026-04-26 03:00 41.39098 1.53687 6517 ft 270 kts 170°
2026-04-26 03:01 41.37256 1.54100 6270 ft 266 kts 170°
2026-04-26 03:01 41.35463 1.54496 6053 ft 255 kts 172°
2026-04-26 03:01 41.33741 1.54290 5805 ft 249 kts 201°
2026-04-26 03:01 41.32185 1.53330 5585 ft 244 kts 206°
2026-04-26 03:02 41.30654 1.52368 5373 ft 244 kts 205°
2026-04-26 03:02 41.29128 1.51405 5144 ft 243 kts 206°
2026-04-26 03:02 41.27616 1.50446 4925 ft 239 kts 205°
2026-04-26 03:02 41.26127 1.49501 4737 ft 233 kts 205°
2026-04-26 03:03 41.24705 1.48568 4534 ft 223 kts 211°
2026-04-26 03:03 41.23687 1.47094 4246 ft 216 kts 242°
2026-04-26 03:03 41.23082 1.45318 4044 ft 207 kts 248°
2026-04-26 03:03 41.22549 1.43581 3844 ft 200 kts 249°
2026-04-26 03:04 41.22047 1.41881 3650 ft 197 kts 249°
2026-04-26 03:04 41.21553 1.40191 3474 ft 196 kts 249°
2026-04-26 03:04 41.21064 1.38510 3283 ft 195 kts 249°
2026-04-26 03:04 41.20575 1.36825 3070 ft 195 kts 249°
2026-04-26 03:05 41.20087 1.35145 2834 ft 195 kts 249°
2026-04-26 03:05 41.19602 1.33471 2596 ft 194 kts 249°
2026-04-26 03:05 41.19119 1.31804 2344 ft 193 kts 249°
2026-04-26 03:05 41.18639 1.30151 2097 ft 192 kts 249°
2026-04-26 03:06 41.18161 1.28504 1843 ft 190 kts 250°
2026-04-26 03:06 41.17693 1.26890 1596 ft 189 kts 250°
2026-04-26 03:06 41.17237 1.25319 1359 ft 173 kts 249°
2026-04-26 03:06 41.16822 1.23886 1136 ft 159 kts 250°
2026-04-26 03:07 41.16433 1.22548 920 ft 152 kts 250°
2026-04-26 03:07 41.16055 1.21246 717 ft 151 kts 250°
2026-04-26 03:07 41.15682 1.19946 527 ft 150 kts 250°
2026-04-26 03:07 41.15310 1.18657 344 ft 149 kts 249°
2026-04-26 03:08 41.14950 1.17422 242 ft 125 kts 247°
2026-04-26 03:08 41.14729 1.16682 242 ft 58 kts 249°
2026-04-26 03:08 41.14589 1.16205 242 ft 44 kts 248°
2026-04-26 03:08 41.14525 1.15982 242 ft 10 kts 249°
2026-04-26 03:09 41.14556 1.15906 242 ft 12 kts 336°
2026-04-26 03:09 41.14611 1.15878 242 ft 0 kts 339°
2026-04-26 03:10 41.14619 1.15873 242 ft 4 kts 339°
2026-04-26 03:11 41.14667 1.15876 242 ft 10 kts 29°
2026-04-26 03:11 41.14725 1.15888 242 ft 4 kts 341°
2026-04-26 03:11 41.14750 1.15875 242 ft 2 kts 338°
2026-04-26 03:11 41.14754 1.15873 242 ft 0 kts 338°